Location: Bottenau
(48.5138°N, 8.0462°E)
Time: 04:17:45
(UTC+00:00)

Cosmos 2297 Rocket - Pass Details

Date: 18 April 2021
Orbit: 838 x 844 km, 71.0° (Epoch: 09 May)

Event Time Altitude Azimuth Distance (km) Brightness Sun altitude
Exits shadow 21:43:42 - 232° (SW) 2,674 4.7 -26.1°
Reaches altitude 10° 21:44:18 10° 234° (SW) 2,454 4.5 -26.2°
Maximum altitude 21:49:41 45° 306° (NW) 1,142 3.2 -26.6°
Drops below altitude 10° 21:55:07 10° 19° (NNE) 2,472 5.2 -27.0°
Sets 21:57:42 0° 26° (NNE) 3,411 5.9 -27.1°
